When you browse on this site, cookies collect data to enhance your experience and personalize the content and advertising you see.
Visit our Privacy Policy to learn more. By continuing to use the site, you agree to this use of cookies and data.
  • In Spain
  • List of Countries
  • For 7 days
  • Water Temperature
  • Weather Map
  • Weather Widgets
  • user-avatar
    Login

    Hourly Weather Adelaide

    Today, 29 March, Sunday

    Time Temperature Precipitation Wind Pressure Humidity
    00:00 +25°C° 0 mm 5 mps 752 mmHg 23%
    01:00 +26°C° 0 mm 5 mps 752 mmHg 23%
    02:00 +26°C° 0 mm 5 mps 751 mmHg 23%
    03:00 +26°C° 0 mm 6 mps 751 mmHg 23%
    04:00 +25°C° 0 mm 5 mps 751 mmHg 28%
    05:00 +23°C° 0 mm 4 mps 752 mmHg 34%
    06:00 +24°C° 0 mm 3 mps 753 mmHg 40%
    07:00 +24°C° 0.1 mm 3 mps 753 mmHg 46%
    08:00 +23°C° 0.1 mm 4 mps 753 mmHg 53%
    09:00 +23°C° 0.1 mm 4 mps 754 mmHg 60%
    10:00 +23°C° 0 mm 4 mps 754 mmHg 59%
    11:00 +23°C° 0 mm 4 mps 754 mmHg 58%
    12:00 +25°C° 0 mm 4 mps 754 mmHg 57%
    13:00 +23°C° 0 mm 4 mps 754 mmHg 58%
    14:00 +23°C° 0 mm 4 mps 753 mmHg 58%
    15:00 +23°C° 0 mm 4 mps 753 mmHg 58%
    16:00 +21°C° 0 mm 4 mps 754 mmHg 64%
    17:00 +20°C° 0 mm 4 mps 754 mmHg 69%
    18:00 +19°C° 0 mm 3 mps 755 mmHg 75%
    19:00 +19°C° 0 mm 4 mps 755 mmHg 76%
    20:00 +18°C° 0 mm 4 mps 756 mmHg 78%
    21:00 +17°C° 0 mm 5 mps 756 mmHg 79%
    22:00 +18°C° 0 mm 4 mps 756 mmHg 79%
    23:00 +17°C° 0 mm 4 mps 757 mmHg 79%

    Tomorrow, 30 March, Monday

    Time Temperature Precipitation Wind Pressure Humidity
    00:00 +17°C° 0 mm 4 mps 757 mmHg 79%
    01:00 +17°C° 0 mm 4 mps 757 mmHg 78%
    02:00 +17°C° 0 mm 4 mps 756 mmHg 76%
    03:00 +15°C° 0 mm 4 mps 756 mmHg 75%
    04:00 +16°C° 0 mm 3 mps 757 mmHg 74%
    05:00 +16°C° 0 mm 3 mps 757 mmHg 73%
    06:00 +16°C° 0 mm 2 mps 758 mmHg 73%
    07:00 +17°C° 0 mm 3 mps 758 mmHg 68%
    08:00 +18°C° 0 mm 3 mps 758 mmHg 63%
    09:00 +19°C° 0 mm 3 mps 759 mmHg 59%
    10:00 +20°C° 0 mm 3 mps 759 mmHg 56%
    11:00 +20°C° 0 mm 3 mps 759 mmHg 52%
    12:00 +21°C° 0 mm 3 mps 759 mmHg 49%
    13:00 +21°C° 0 mm 3 mps 758 mmHg 49%
    14:00 +21°C° 0 mm 3 mps 758 mmHg 48%
    15:00 +21°C° 0 mm 3 mps 757 mmHg 48%
    16:00 +20°C° 0 mm 3 mps 758 mmHg 53%
    17:00 +19°C° 0 mm 2 mps 758 mmHg 59%
    18:00 +18°C° 0 mm 2 mps 758 mmHg 65%
    19:00 +17°C° 0 mm 2 mps 759 mmHg 69%
    20:00 +17°C° 0 mm 2 mps 759 mmHg 74%
    21:00 +16°C° 0 mm 1 mps 759 mmHg 79%
    22:00 +16°C° 0 mm 1 mps 759 mmHg 80%
    23:00 +16°C° 0 mm 1 mps 759 mmHg 80%

    Day after tomorrow, 31 March, Tuesday

    Time Temperature Precipitation Wind Pressure Humidity
    00:00 +15°C° 0 mm 1 mps 760 mmHg 81%
    01:00 +15°C° 0 mm 1 mps 759 mmHg 82%
    02:00 +15°C° 0 mm 1 mps 759 mmHg 83%
    03:00 +15°C° 0 mm 1 mps 759 mmHg 84%
    04:00 +14°C° 0 mm 1 mps 759 mmHg 84%
    05:00 +14°C° 0 mm 1 mps 760 mmHg 85%
    06:00 +14°C° 0 mm 1 mps 760 mmHg 85%
    07:00 +16°C° 0 mm 1 mps 760 mmHg 76%
    08:00 +20°C° 0 mm 1 mps 760 mmHg 67%
    09:00 +22°C° 0 mm 1 mps 760 mmHg 58%
    10:00 +23°C° 0 mm 1 mps 760 mmHg 54%
    11:00 +24°C° 0 mm 2 mps 760 mmHg 51%
    12:00 +25°C° 0 mm 2 mps 759 mmHg 47%
    13:00 +24°C° 0 mm 3 mps 759 mmHg 48%
    14:00 +24°C° 0 mm 3 mps 758 mmHg 50%
    15:00 +23°C° 0 mm 4 mps 758 mmHg 52%
    16:00 +22°C° 0 mm 4 mps 758 mmHg 56%
    17:00 +20°C° 0 mm 4 mps 758 mmHg 60%
    18:00 +19°C° 0 mm 3 mps 758 mmHg 64%
    19:00 +18°C° 0 mm 3 mps 759 mmHg 68%
    20:00 +18°C° 0 mm 3 mps 759 mmHg 71%
    21:00 +17°C° 0 mm 3 mps 759 mmHg 75%
    22:00 +17°C° 0 mm 3 mps 759 mmHg 76%
    23:00 +17°C° 0 mm 2 mps 759 mmHg 76%

    1 April, Wednesday

    Time Temperature Precipitation Wind Pressure Humidity
    00:00 +16°C° 0 mm 2 mps 759 mmHg 77%
    01:00 +16°C° 0 mm 2 mps 758 mmHg 76%
    02:00 +16°C° 0 mm 2 mps 758 mmHg 76%
    03:00 +16°C° 0 mm 2 mps 758 mmHg 76%
    04:00 +16°C° 0 mm 2 mps 758 mmHg 77%
    05:00 +15°C° 0 mm 2 mps 759 mmHg 78%
    06:00 +15°C° 0 mm 2 mps 759 mmHg 79%
    07:00 +17°C° 0 mm 2 mps 759 mmHg 72%
    08:00 +18°C° 0 mm 2 mps 759 mmHg 64%
    09:00 +20°C° 0 mm 2 mps 758 mmHg 57%
    10:00 +21°C° 0 mm 2 mps 758 mmHg 53%
    11:00 +23°C° 0 mm 2 mps 758 mmHg 49%
    12:00 +24°C° 0 mm 3 mps 757 mmHg 46%
    13:00 +24°C° 0 mm 3 mps 757 mmHg 47%
    14:00 +22°C° 0 mm 3 mps 757 mmHg 49%
    15:00 +22°C° 0 mm 3 mps 756 mmHg 51%
    16:00 +21°C° 0 mm 3 mps 756 mmHg 56%
    17:00 +20°C° 0 mm 4 mps 756 mmHg 61%
    18:00 +19°C° 0 mm 5 mps 757 mmHg 66%
    19:00 +19°C° 0.1 mm 5 mps 757 mmHg 69%
    20:00 +17°C° 0.1 mm 5 mps 757 mmHg 73%
    21:00 +17°C° 0.1 mm 6 mps 757 mmHg 77%
    22:00 +17°C° 0 mm 5 mps 757 mmHg 77%
    23:00 +17°C° 0 mm 5 mps 757 mmHg 77%

    2 April, Thursday

    Time Temperature Precipitation Wind Pressure Humidity
    00:00 +18°C° 0 mm 4 mps 757 mmHg 77%
    01:00 +18°C° 0.1 mm 4 mps 756 mmHg 76%
    02:00 +18°C° 0.1 mm 4 mps 756 mmHg 75%
    03:00 +18°C° 0.1 mm 4 mps 756 mmHg 74%
    04:00 +18°C° 0 mm 3 mps 756 mmHg 74%
    05:00 +18°C° 0 mm 3 mps 756 mmHg 74%
    06:00 +18°C° 0 mm 2 mps 756 mmHg 74%
    07:00 +19°C° 0 mm 2 mps 756 mmHg 69%
    08:00 +20°C° 0 mm 2 mps 756 mmHg 64%
    09:00 +21°C° 0 mm 2 mps 756 mmHg 59%
    10:00 +23°C° 0 mm 2 mps 756 mmHg 55%
    11:00 +25°C° 0 mm 2 mps 755 mmHg 50%
    12:00 +26°C° 0 mm 1 mps 755 mmHg 46%
    13:00 +26°C° 0 mm 2 mps 755 mmHg 48%
    14:00 +25°C° 0 mm 2 mps 754 mmHg 51%
    15:00 +24°C° 0 mm 2 mps 754 mmHg 54%
    16:00 +23°C° 0 mm 2 mps 754 mmHg 59%
    17:00 +22°C° 0 mm 1 mps 754 mmHg 64%
    18:00 +21°C° 0 mm 1 mps 753 mmHg 68%
    19:00 +20°C° 0 mm 1 mps 754 mmHg 70%
    20:00 +20°C° 0 mm 1 mps 754 mmHg 71%
    21:00 +20°C° 0 mm 1 mps 754 mmHg 73%
    22:00 +19°C° 0 mm 1 mps 753 mmHg 73%
    23:00 +19°C° 0 mm 1 mps 753 mmHg 73%

    3 April, Friday

    Time Temperature Precipitation Wind Pressure Humidity
    00:00 +19°C° 0 mm 1 mps 753 mmHg 73%
    01:00 +19°C° 0 mm 1 mps 752 mmHg 72%
    02:00 +18°C° 0 mm 2 mps 752 mmHg 71%
    03:00 +18°C° 0 mm 2 mps 751 mmHg 70%
    04:00 +18°C° 0 mm 2 mps 751 mmHg 70%
    05:00 +18°C° 0 mm 2 mps 751 mmHg 70%
    06:00 +18°C° 0 mm 2 mps 751 mmHg 71%
    07:00 +19°C° 0 mm 3 mps 751 mmHg 65%
    08:00 +21°C° 0 mm 3 mps 750 mmHg 60%
    09:00 +22°C° 0 mm 4 mps 750 mmHg 54%
    10:00 +23°C° 0 mm 4 mps 750 mmHg 52%
    11:00 +25°C° 0 mm 5 mps 750 mmHg 50%
    12:00 +24°C° 0 mm 6 mps 749 mmHg 48%
    13:00 +24°C° 0 mm 6 mps 749 mmHg 50%
    14:00 +23°C° 0 mm 7 mps 749 mmHg 51%
    15:00 +22°C° 0 mm 7 mps 748 mmHg 52%
    16:00 +22°C° 0 mm 7 mps 748 mmHg 56%
    17:00 +21°C° 0 mm 7 mps 748 mmHg 60%
    18:00 +20°C° 0 mm 7 mps 749 mmHg 63%
    19:00 +18°C° 0.2 mm 7 mps 749 mmHg 70%
    20:00 +18°C° 0.2 mm 7 mps 750 mmHg 76%
    21:00 +17°C° 0.2 mm 7 mps 750 mmHg 83%
    22:00 +16°C° 0.1 mm 7 mps 750 mmHg 78%
    23:00 +16°C° 0.1 mm 7 mps 750 mmHg 74%
    Show more